Weather Roundup
Issued by NWS Chicago, IL

Home | Current Version | Previous Version | Text Only | Print | Product List | Glossary Off
Versions: 1 2 3 4 5 6 7 8 9 10 11 12 13 14 15 16 17 18 19 20 21 22 23 24 25 26 27 28 29 30 31 32 33 34 35 36 37 38 39 40 41 42 43 44 45 46 47 48 49 50

000
NZUS59 KLOT 220612
HRRLOT

CHICAGO AREA WEATHER ROUNDUP
NATIONAL WEATHER SERVICE CHICAGO/ROMEOVILLE IL
100 AM CDT FRI MAY 22 2015

NOTE: "FAIR" INDICATES FEW OR NO CLOUDS BELOW 12,000 FEET WITH NO
SIGNIFICANT WEATHER AND/OR OBSTRUCTIONS TO VISIBILITY.

* THESE STATIONS ARE NOT UNDER NWS QUALITY CONTROL. THEY ALSO MAY NOT
  REPORT WEATHER SUCH AS PRECIPITATION OR FOG.

ILZ005-006-012>014-019>023-220700-
NORTHEAST ILLINOIS

CITY           SKY/WX    TMP DP  RH WIND       PRES   REMARKS
OHARE          PTCLDY    59  40  49 SW12      30.01F
6HR MIN TEMP:  58; 6HR MAX TEMP:  67;

MIDWAY         PTCLDY    60  41  49 W10       30.03S
6HR MIN TEMP:  58; 6HR MAX TEMP:  69;

AURORA         CLEAR     55  42  61 SW9       30.03F
6HR MIN TEMP:  55; 6HR MAX TEMP:  67;

LANSING*       CLEAR     52  39  61 SW6       30.04S
JOLIET*        CLEAR     58  44  60 SW7       30.04F
WAUKEGAN       PTCLDY    52  48  86 N8        30.02S
6HR MIN TEMP:  50; 6HR MAX TEMP:  66; 6HR PCP:  0.01;

DUPAGE AIRPORT CLEAR     54  41  61 SW9       30.02F
6HR MIN TEMP:  54; 6HR MAX TEMP:  66;

WHEELING       MOCLDY    57  40  52 CALM      30.04R
6HR MIN TEMP:  57; 6HR MAX TEMP:  67;

KANKAKEE*      CLEAR     52  43  70 SW8       30.07S
MORRIS*        CLEAR     56  44  61 SW9       30.02S
LEWIS AIRPORT* CLEAR     56  41  57 SW12      30.04S
NORTHERLY IS     N/A     60  38  43 W8          N/A
$$

WIZ051-052-058>065-066-070>072-220700-
SOUTHEAST WISCONSIN

CITY           SKY/WX    TMP DP  RH WIND       PRES   REMARKS
MILWAUKEE      CLEAR     47  34  60 N9        30.06R
6HR MIN TEMP:  47; 6HR MAX TEMP:  70; 6HR PCP: TRACE;

KENOSHA*       PTCLDY    49  43  80 N9        30.04R
RACINE*        PTCLDY    47  39  74 N12       30.06R
BURLINGTON     CLEAR     49  40  71 NE8       30.05R
WAUKESHA       CLEAR     45  34  65 NE6       30.08R
WEST BEND      MOCLDY    45  32  61 CALM      30.08R
$$

INZ001>003-010>013-019-020-220700-
NORTHWEST INDIANA

CITY           SKY/WX    TMP DP  RH WIND       PRES   REMARKS
GARY*          CLEAR     57  39  51 SW5       30.05S
6HR MIN TEMP:  56; 6HR MAX TEMP:  68;

MICHIGAN CITY* NOT AVBL
RENSSELAER*    NOT AVBL
VALPARAISO     CLEAR     53  37  54 SW9       30.05F
$$

LMZ740>746-220700-
SOUTHERN LAKE MICHIGAN

STATION/POSITION TIME  SKY/WX   TEMP WIND        PRES    VSBY
                                AIR  DIR/SP/G
                 (UTC)          (F)  (DEG/KT/KT) (MB)    (MI)
HARRISON CRIB    0500            65  240/ 20/ 26   N/A
BURNHAM HARBOR   0600            60  240/  5/ 10   N/A
CALUMET HARBOR   0500            59  210/  6/ 10   N/A
BURNS HARBOR     0500            58  200/ 10/ 13 1017.6S
MICHIGAN CITY    0500            58  180/ 12/ 14   N/A
$$

ABBREVIATIONS USED IN REMARKS
   TC - TEMPERATURE IN CELSIUS
  WCI - WIND CHILL INDEX
   HX - HEAT INDEX
  VSB - VISIBILITY
$$


USA.gov is the U.S. government's official web portal to all federal, state and local government web resources and services.